Weather History for KBKE - April, 2014

Change the Weather History Date:

Thursday, April 3, 2014

  Actual Average Record
Temperature  
Mean Temperature 39 °F 41 °F  
Max Temperature 58 °F 55 °F 71 °F (1987)
Min Temperature 19 °F 28 °F 14 °F (2007)
Degree Days  
Heating Degree Days 26 24  
Month to date heating degree days 73 72  
Since 1 July heating degree days 6354 6440  
Cooling Degree Days 0 0  
Month to date cooling degree days 0 0  
Year to date cooling degree days 0 0  
Moisture  
Dew Point 25 °F    
Average Humidity 64    
Maximum Humidity 100    
Minimum Humidity 28    
Precipitation  
Precipitation T in 0.02 in 0.21 in (2005)
Month to date precipitation 0.04 0.07  
Year to date precipitation 2.77 2.27  
Sea Level Pressure  
Sea Level Pressure 30.02 in    
Wind  
Wind Speed 8 mph (SSE)    
Max Wind Speed 22 mph    
Max Gust Speed 29 mph    
Visibility 8 miles    
Events Rain    
T = Trace of Precipitation, MM = Missing Value Source: NWS Daily Summary

Daily Weather History Graph

Daily Weather History Graph

Search for Another Location

Airport or City:

Trip Planner

Search our weather history database for the weather conditions in past years. The results will help you decide how hot, cold, wet, or windy it might be!

Date:

Astronomy

Apr. 03, 2014 Rise Set
Actual Time 6:28 AM PDT 7:21 PM PDT
Civil Twilight 5:58 AM PDT 7:51 PM PDT
Nautical Twilight 5:23 AM PDT 8:26 PM PDT
Astronomical Twilight 4:46 AM PDT 9:04 PM PDT
Moon 8:52 AM PDT (4/3) 11:54 PM PDT (4/3)
Length of Visible Light 13h 52m
Length of Day
12h 53m
Waxing Crescent, 18% of the Moon is Illuminated
Apr 3
Waxing Crescent
Apr 7
First Quarter
Apr 15
Full
Apr 22
Last Quarter
Apr 28
New

Hourly Weather History & Observations

Time (PDT) Temp. Windchill Dew Point Humidity Pressure Visibility Wind Dir Wind Speed Gust Speed Precip Events Conditions
12:53 AM 28.9 °F 22.8 °F 24.1 °F 82% 30.03 in 10.0 mi WSW 5.8 mph - N/A   Clear
1:53 AM 28.0 °F - 24.1 °F 85% 30.04 in 10.0 mi Calm Calm - N/A   Clear
2:53 AM 25.0 °F - 21.9 °F 88% 30.05 in 10.0 mi Calm Calm - N/A   Clear
3:53 AM 24.1 °F 19.7 °F 21.9 °F 91% 30.06 in 10.0 mi NW 3.5 mph - N/A   Clear
4:53 AM 23.0 °F - 21.9 °F 96% 30.06 in 10.0 mi Calm Calm - N/A   Clear
5:28 AM 21.0 °F - 19.9 °F 96% 30.03 in 1.5 mi Calm Calm - N/A   Clear
5:39 AM 23.0 °F - 21.0 °F 92% 30.03 in 3.0 mi Calm Calm - N/A   Clear
5:47 AM 21.2 °F - 19.4 °F 93% 30.03 in 1.8 mi Calm Calm - N/A   Clear
5:53 AM 19.9 °F - 19.0 °F 96% 30.09 in 0.8 mi Calm Calm - N/A   Clear
6:04 AM 21.0 °F 14.6 °F 19.9 °F 96% 30.03 in 2.0 mi NE 4.6 mph - N/A   Clear
6:12 AM 19.9 °F - 19.9 °F 100% 30.03 in 9.0 mi Calm Calm - N/A   Clear
6:53 AM 21.9 °F - 21.0 °F 96% 30.09 in 10.0 mi Calm Calm - N/A   Clear
7:53 AM 28.9 °F - 27.0 °F 92% 30.10 in 10.0 mi Calm Calm - N/A   Clear
8:53 AM 39.9 °F 37.8 °F 28.9 °F 65% 30.08 in 10.0 mi Variable 3.5 mph - N/A   Clear
9:53 AM 46.0 °F 43.1 °F 28.9 °F 51% 30.07 in 10.0 mi ESE 5.8 mph - N/A   Clear
10:53 AM 50.0 °F - 26.1 °F 39% 30.05 in 10.0 mi SE 12.7 mph 19.6 mph N/A   Clear
11:53 AM 52.0 °F - 25.0 °F 35% 30.04 in 10.0 mi SSE 10.4 mph 19.6 mph N/A   Clear
12:53 PM 55.0 °F - 25.0 °F 31% 30.03 in 10.0 mi South 12.7 mph 20.7 mph N/A   Partly Cloudy
1:53 PM 55.0 °F - 24.1 °F 30% 30.01 in 10.0 mi South 10.4 mph 25.3 mph N/A   Scattered Clouds
2:53 PM 57.0 °F - 25.0 °F 29% 29.99 in 10.0 mi SE 17.3 mph 24.2 mph N/A   Unknown
3:53 PM 55.9 °F - 24.1 °F 29% 29.98 in 10.0 mi SSE 18.4 mph 25.3 mph N/A   Scattered Clouds
4:53 PM 54.0 °F - 24.1 °F 31% 29.97 in 10.0 mi SSE 20.7 mph 26.5 mph N/A   Mostly Cloudy
5:53 PM 53.1 °F - 26.1 °F 35% 29.97 in 10.0 mi SE 17.3 mph - N/A   Overcast
6:53 PM 50.0 °F - 30.0 °F 46% 29.97 in 10.0 mi ESE 10.4 mph - N/A   Overcast
8:53 PM 42.1 °F 40.2 °F 32.0 °F 67% 29.97 in 10.0 mi East 3.5 mph - 0.00 in   Overcast
9:53 PM 44.1 °F 37.1 °F 30.9 °F 60% 29.96 in 10.0 mi SSE 15.0 mph - N/A   Mostly Cloudy
10:53 PM 45.0 °F 38.9 °F 32.0 °F 60% 29.95 in 10.0 mi SSW 12.7 mph - 0.00 in Rain Light Rain
11:53 PM 43.0 °F 36.8 °F 32.0 °F 65% 29.95 in 10.0 mi South 11.5 mph - 0.00 in   Overcast